562  
NZUS99 KTBW 181417  
RWRTPA  
FLORIDA REGIONAL WEATHER ROUNDUP  
NATIONAL WEATHER SERVICE TAMPA BAY RUSKIN FL  
1000 AM EDT WED SEP 18 2019  
 
NOTE: "FAIR" INDICATES FEW OR NO CLOUDS BELOW 12,000 FEET WITH NO  
SIGNIFICANT WEATHER AND/OR S TO VISIBILITY
.  
 
 
STATION/POSITION
 
 
 
FLZ042-048>051-055-056-060-061-181500-  
EXTRA STATIONS  
 
CITY SKY/WX TMP DP RH WIND PRES REMARKS
 
EVERGLADES CTY NOT AVBL  
CRYSTAL RIVER FAIR 82 72 69 CALM 30.00S  
SEBRING FAIR 82 77 82 NE7 29.99R HX 90  
EGLIN AFB FAIR 81 71 71 NW6 29.98  
CANAVERAL FAIR 85 77 77 NE7 29.97 HX 96  
 

 
FLZ001>010-012>015-181500-  
PANHANDLE FLORIDA  
 
CITY SKY/WX TMP DP RH WIND PRES REMARKS
 
PENSACOLA FAIR 86 74 67 NW8 29.99R HX 94  
PENSACOLA NAS FAIR 82 76 81 NW8 29.99S  
MILTON NAS FAIR 83 72 69 N3 29.99S  
CRESTVIEW FAIR 83 70 64 NW5 30.00S  
VALPARAISO FAIR 85 71 63 NW7 29.97S HX 90  
MARY ESTHER FAIR 82 73 74 CALM 29.97R HAZE  
PANAMA CITY FAIR 85 71 63 W7 29.97S HX 90  
TYNDALL AFB FAIR 87 74 63 W10 29.97 HX 95  
APALACHICOLA FAIR 87 75 67 NW8 29.97S HX 96  
 
STATION/POSITION
 
 
29.2N 88.2W  
28.8N 86.0W  
28.5N 84.5W  
 

 
FLZ011-016>039-181500-  
NORTH FLORIDA  
 
CITY SKY/WX TMP DP RH WIND PRES REMARKS
 
MARIANNA FAIR 82 71 69 NW5 29.95S  
TALLAHASSEE FAIR 83 72 69 NW6 29.96R  
PERRY FAIR 85 75 72 CALM 29.98S HX 93  
CROSS CITY N/A 83 67 58 SE6 29.99S  
GAINESVILLE FAIR 82 74 76 SE6 30.02S  
MAYPORT NAS CLOUDY 81 75 82 CALM 30.01R  
JACKSONVILLE CLOUDY 78 72 81 CALM 30.00R  
JAX NAS PTSUNNY 81 73 76 SE5 30.01R  
JAX CRAIG FAIR 81 75 82 CALM 30.01R  
ST AUGUSTINE FAIR 82 73 75 CALM 30.01S HAZE  
 
STATION/POSITION
 
 
KEATON BEACH  
31.4N 80.9W  
ST AUGUSTINE  
 

 
FLZ040-043>046-052-053-057-058-063-181500-  
CENTRAL FLORIDA  
 
CITY SKY/WX TMP DP RH WIND PRES REMARKS
 
OCALA FAIR 82 75 79 VRB5 30.01S  
LEESBURG FAIR 84 74 71 N5 30.01S HX 91  
SANFORD PTSUNNY 80 75 84 N7 30.00R  
ORLANDO EXEC PTSUNNY 82 73 74 N6 30.00S  
ORLANDO INTL PTSUNNY 83 74 74 N6 30.00S  
KISSIMMEE FAIR 83 75 77 NE6 30.01S HX 90  
WINTER HAVEN FAIR 85 74 69 N6 30.01S HX 92  
LAKELAND MOSUNNY 82 73 74 NE6 30.01R  
BARTOW MOSUNNY 82 75 78 VRB5 29.99S  
 

 
FLZ041-047-054-059-064-181500-  
EAST CENTRAL FLORIDA  
 
CITY SKY/WX TMP DP RH WIND PRES REMARKS
 
DAYTONA BEACH PTSUNNY 80 76 87 NW3 30.00S  
TITUSVILLE MOSUNNY 86 77 74 N3 29.99S HX 97  
PATRICK AFB FAIR 85 75 71 NE9 29.98 HX 94  
MELBOURNE FAIR 86 73 65 NE10 29.97S HX 93  
VERO BEACH FAIR 86 73 65 NE12 29.97S HX 93  
FT PIERCE FAIR 85 71 63 NE7 29.96S HX 90  
 
STATION/POSITION
 
 
28.9N 78.5W  
 

 
FLZ042-048>051-055-056-060-061-181500-  
WEST CENTRAL FLORIDA  
 
CITY SKY/WX TMP DP RH WIND PRES REMARKS
 
BROOKSVILLE FAIR 82 72 71 NE5 30.01S  
TAMPA FAIR 83 73 72 NE5 30.00S  
MACDILL AFB FAIR 82 73 75 E5 29.99  
ST PETERSBURG FAIR 83 73 72 E7 30.00R  
ST PET-WHITTED FAIR 82 74 76 NE7 29.98R  
SARASOTA FAIR 84 74 71 NE8 29.97S HX 91  
 
STATION/POSITION
 
 
CEDAR KEY  
28.5N 84.5W  
VENICE  
 

 
FLZ062-065-066-069-070-075>078-181500-  
SOUTHWEST FLORIDA AND KEYS  
 
CITY SKY/WX TMP DP RH WIND PRES REMARKS
 
PUNTA GORDA FAIR 82 76 81 NE9 29.99S  
FT MYERS FAIR 83 74 74 NE6 29.96S  
SOUTHWEST INTL FAIR 83 75 77 NE8 29.97S HX 90  
NAPLES FAIR 85 77 77 N7 29.95S HX 95  
MARATHON FAIR 85 75 72 NE12 29.93S HX 93  
KEY WEST NAS FAIR 87 74 64 NE10 29.93S HX 95  
KEY WEST INTL FAIR 86 75 69 NE9 29.94S HX 95  
 
STATION/POSITION
 
 
VENICE  
26.0N 85.6W  
SAND KEY  
SOMBRERO KEY  
LONG KEY  
 

 
FLZ067-068-071>074-181500-  
SOUTHEAST FLORIDA  
 
CITY SKY/WX TMP DP RH WIND PRES REMARKS
 
W PALM BEACH FAIR 85 71 63 NE12 29.96R HX 90  
POMPANO BEACH FAIR 86 72 62 NE13 29.95R HX 92  
FT LAUDER-EXEC FAIR 85 74 69 NE8 29.94R HX 92  
FT LAUDERDALE FAIR 84 73 69 NE9 29.94R HX 90  
PEMBROKE PINES FAIR 86 73 65 NE8 29.96R HX 93  
OPA LOCKA FAIR 87 75 67 N7 29.95R HX 96  
MIAMI FAIR 86 73 65 NE8 29.94S HX 93  
WEST KENDALL FAIR 85 77 77 N8 29.94S HX 95  
HOMESTEAD FAIR 82 75 78 N6 29.93  
 
STATION/POSITION
 
 
LAKE WORTH  
FOWEY ROCKS  
SETTLEMENT POINT  
 

 
 
 
CLICK HERE TO GO TO PREVIOUS BULLETINS.

The Nexlab FL Page Main Text Page